Météo par heure à Alimgulovo

Ce jour, 13 Mai, Jeudi

Heure Température Précipitation Vent Pression Humidité
00:00 +14°C° 0 mm 1 m/s 740 mmHg 59%
01:00 +14°C° 0 mm 1 m/s 740 mmHg 61%
02:00 +13°C° 0 mm 1 m/s 740 mmHg 61%
03:00 +13°C° 0 mm 1 m/s 740 mmHg 62%
04:00 +12°C° 0 mm 1 m/s 740 mmHg 63%
05:00 +14°C° 0 mm 1 m/s 740 mmHg 60%
06:00 +15°C° 0 mm 1 m/s 740 mmHg 56%
07:00 +18°C° 0 mm 1 m/s 740 mmHg 53%
08:00 +20°C° 0 mm 1 m/s 740 mmHg 48%
09:00 +21°C° 0 mm 2 m/s 741 mmHg 42%
10:00 +23°C° 0 mm 2 m/s 741 mmHg 37%
11:00 +24°C° 0 mm 2 m/s 741 mmHg 34%
12:00 +25°C° 0 mm 2 m/s 741 mmHg 32%
13:00 +26°C° 0 mm 2 m/s 741 mmHg 29%
14:00 +26°C° 0 mm 2 m/s 740 mmHg 29%
15:00 +26°C° 0 mm 2 m/s 740 mmHg 30%
16:00 +26°C° 0 mm 2 m/s 740 mmHg 30%
17:00 +25°C° 0 mm 2 m/s 740 mmHg 36%
18:00 +23°C° 0 mm 2 m/s 740 mmHg 43%
19:00 +21°C° 0 mm 2 m/s 739 mmHg 49%
20:00 +20°C° 0 mm 1 m/s 739 mmHg 50%
21:00 +19°C° 0 mm 1 m/s 740 mmHg 51%
22:00 +18°C° 0 mm 1 m/s 740 mmHg 52%
23:00 +16°C° 0 mm 1 m/s 740 mmHg 53%

Demain, 14 Mai, Vendredi

Heure Température Précipitation Vent Pression Humidité
00:00 +16°C° 0 mm 1 m/s 739 mmHg 54%
01:00 +15°C° 0 mm 1 m/s 739 mmHg 55%
02:00 +15°C° 0 mm 1 m/s 739 mmHg 56%
03:00 +14°C° 0 mm 1 m/s 740 mmHg 58%
04:00 +14°C° 0 mm 1 m/s 740 mmHg 59%
05:00 +15°C° 0 mm 1 m/s 740 mmHg 56%
06:00 +18°C° 0 mm 1 m/s 740 mmHg 54%
07:00 +19°C° 0 mm 1 m/s 740 mmHg 51%
08:00 +21°C° 0 mm 1 m/s 741 mmHg 47%
09:00 +23°C° 0 mm 2 m/s 741 mmHg 42%
10:00 +25°C° 0 mm 2 m/s 741 mmHg 37%
11:00 +26°C° 0 mm 2 m/s 741 mmHg 35%
12:00 +27°C° 0 mm 2 m/s 741 mmHg 33%
13:00 +27°C° 0 mm 3 m/s 740 mmHg 31%
14:00 +28°C° 0 mm 2 m/s 740 mmHg 30%
15:00 +28°C° 0 mm 2 m/s 740 mmHg 30%
16:00 +28°C° 0 mm 2 m/s 740 mmHg 30%
17:00 +26°C° 0 mm 2 m/s 740 mmHg 36%
18:00 +25°C° 0 mm 1 m/s 739 mmHg 42%
19:00 +24°C° 0 mm 1 m/s 739 mmHg 47%
20:00 +22°C° 0 mm 1 m/s 739 mmHg 49%
21:00 +21°C° 0 mm 1 m/s 739 mmHg 50%
22:00 +19°C° 0 mm 1 m/s 739 mmHg 51%
23:00 +19°C° 0 mm 1 m/s 739 mmHg 51%

Après-demain, 15 Mai, Samedi

Heure Température Précipitation Vent Pression Humidité
00:00 +18°C° 0 mm 1 m/s 739 mmHg 51%
01:00 +18°C° 0 mm 1 m/s 739 mmHg 51%
02:00 +16°C° 0 mm 1 m/s 739 mmHg 52%
03:00 +16°C° 0 mm 1 m/s 739 mmHg 52%
04:00 +16°C° 0 mm 1 m/s 739 mmHg 53%
05:00 +18°C° 0 mm 1 m/s 739 mmHg 52%
06:00 +19°C° 0 mm 1 m/s 739 mmHg 50%
07:00 +21°C° 0 mm 1 m/s 740 mmHg 49%
08:00 +23°C° 0 mm 1 m/s 739 mmHg 45%
09:00 +24°C° 0 mm 1 m/s 739 mmHg 40%
10:00 +26°C° 0 mm 2 m/s 739 mmHg 36%
11:00 +27°C° 0 mm 2 m/s 739 mmHg 34%
12:00 +28°C° 0 mm 2 m/s 739 mmHg 31%
13:00 +29°C° 0 mm 2 m/s 739 mmHg 29%
14:00 +29°C° 0 mm 2 m/s 739 mmHg 29%
15:00 +29°C° 0 mm 2 m/s 739 mmHg 29%
16:00 +29°C° 0 mm 1 m/s 738 mmHg 28%
17:00 +28°C° 0 mm 1 m/s 738 mmHg 34%
18:00 +26°C° 0 mm 1 m/s 738 mmHg 39%
19:00 +23°C° 0 mm 0 m/s 737 mmHg 45%
20:00 +24°C° 0 mm 1 m/s 737 mmHg 45%
21:00 +22°C° 0 mm 1 m/s 737 mmHg 46%
22:00 +21°C° 0 mm 1 m/s 737 mmHg 46%
23:00 +20°C° 0 mm 1 m/s 737 mmHg 48%

16 Mai, Dimanche

Heure Température Précipitation Vent Pression Humidité
00:00 +19°C° 0 mm 1 m/s 737 mmHg 50%
01:00 +19°C° 0 mm 1 m/s 737 mmHg 52%
02:00 +18°C° 0 mm 1 m/s 737 mmHg 53%
03:00 +18°C° 0 mm 1 m/s 737 mmHg 55%
04:00 +16°C° 0 mm 1 m/s 737 mmHg 56%
05:00 +19°C° 0 mm 1 m/s 737 mmHg 54%
06:00 +20°C° 0 mm 1 m/s 738 mmHg 53%
07:00 +22°C° 0 mm 1 m/s 738 mmHg 51%
08:00 +24°C° 0 mm 1 m/s 738 mmHg 46%
09:00 +25°C° 0 mm 1 m/s 738 mmHg 41%
10:00 +27°C° 0 mm 1 m/s 738 mmHg 37%
11:00 +28°C° 0 mm 1 m/s 737 mmHg 34%
12:00 +29°C° 0 mm 1 m/s 737 mmHg 31%
13:00 +30°C° 0 mm 1 m/s 737 mmHg 28%
14:00 +30°C° 0 mm 1 m/s 737 mmHg 28%
15:00 +30°C° 0 mm 1 m/s 737 mmHg 27%
16:00 +30°C° 0 mm 1 m/s 737 mmHg 27%
17:00 +28°C° 0 mm 1 m/s 736 mmHg 33%
18:00 +27°C° 0 mm 1 m/s 736 mmHg 38%
19:00 +26°C° 0 mm 1 m/s 736 mmHg 43%
20:00 +24°C° 0 mm 1 m/s 736 mmHg 44%
21:00 +23°C° 0 mm 1 m/s 735 mmHg 44%
22:00 +21°C° 0 mm 1 m/s 735 mmHg 44%
23:00 +21°C° 0 mm 1 m/s 735 mmHg 46%

17 Mai, Lundi

Heure Température Précipitation Vent Pression Humidité
00:00 +20°C° 0 mm 1 m/s 735 mmHg 47%
01:00 +20°C° 0 mm 1 m/s 735 mmHg 49%
02:00 +19°C° 0 mm 1 m/s 735 mmHg 50%
03:00 +19°C° 0 mm 1 m/s 735 mmHg 52%
04:00 +18°C° 0 mm 1 m/s 735 mmHg 53%
05:00 +19°C° 0 mm 1 m/s 735 mmHg 52%
06:00 +19°C° 0 mm 0 m/s 736 mmHg 51%
07:00 +20°C° 0 mm 0 m/s 736 mmHg 50%
08:00 +24°C° 0 mm 1 m/s 736 mmHg 46%
09:00 +25°C° 0 mm 1 m/s 736 mmHg 42%
10:00 +27°C° 0 mm 1 m/s 736 mmHg 38%
11:00 +28°C° 0 mm 1 m/s 736 mmHg 34%
12:00 +29°C° 0 mm 1 m/s 736 mmHg 30%
13:00 +30°C° 0 mm 2 m/s 735 mmHg 27%
14:00 +30°C° 0 mm 1 m/s 735 mmHg 28%
15:00 +30°C° 0 mm 1 m/s 735 mmHg 30%
16:00 +30°C° 0 mm 1 m/s 735 mmHg 31%
17:00 +27°C° 0 mm 2 m/s 734 mmHg 39%
18:00 +25°C° 0 mm 2 m/s 734 mmHg 47%
19:00 +23°C° 0 mm 2 m/s 734 mmHg 55%
20:00 +21°C° 0 mm 2 m/s 734 mmHg 54%
21:00 +20°C° 0 mm 2 m/s 734 mmHg 53%
22:00 +21°C° 0 mm 1 m/s 734 mmHg 52%
23:00 +20°C° 0 mm 1 m/s 734 mmHg 54%

18 Mai, Mardi

Heure Température Précipitation Vent Pression Humidité
00:00 +20°C° 0 mm 1 m/s 734 mmHg 55%
01:00 +19°C° 0 mm 1 m/s 734 mmHg 57%
02:00 +19°C° 0 mm 1 m/s 734 mmHg 57%
03:00 +18°C° 0 mm 1 m/s 734 mmHg 58%
04:00 +16°C° 0 mm 0 m/s 734 mmHg 58%
05:00 +19°C° 0 mm 1 m/s 734 mmHg 57%
06:00 +20°C° 0 mm 1 m/s 734 mmHg 56%
07:00 +22°C° 0 mm 1 m/s 734 mmHg 55%
08:00 +24°C° 0 mm 1 m/s 734 mmHg 51%
09:00 +25°C° 0 mm 1 m/s 734 mmHg 48%
10:00 +27°C° 0 mm 2 m/s 734 mmHg 44%
11:00 +28°C° 0 mm 2 m/s 734 mmHg 41%
12:00 +29°C° 0 mm 3 m/s 734 mmHg 38%
13:00 +30°C° 0 mm 3 m/s 734 mmHg 35%
14:00 +29°C° 0 mm 3 m/s 734 mmHg 36%
15:00 +29°C° 0 mm 4 m/s 734 mmHg 36%
16:00 +29°C° 0 mm 4 m/s 734 mmHg 37%
17:00 +28°C° 0 mm 3 m/s 734 mmHg 44%
18:00 +26°C° 0 mm 3 m/s 734 mmHg 51%
19:00 +25°C° 0 mm 3 m/s 734 mmHg 59%
20:00 +22°C° 0 mm 3 m/s 734 mmHg 62%
21:00 +21°C° 0 mm 2 m/s 734 mmHg 66%
22:00 +19°C° 0 mm 2 m/s 734 mmHg 69%
23:00 +19°C° 0 mm 2 m/s 735 mmHg 70%
Voir plus

Nous avons besoin de votre consentement

Meteoprog et ses fournisseurs de services peuvent stocker et accéder à des données personnelles telles que des cookies, des identifiants d'appareils ou d'autres technologies similaires sur votre appareil et traiter ces données pour personnaliser le contenu et les publicités, ainsi que pour fournir des fonctionnalités de médias sociaux et analyser le trafic.

  • Stocker et/ou accéder à des informations sur votre appareil

    Des cookies, des identifiants d'appareils ou d'autres informations peuvent être stockés ou accessibles sur votre appareil aux fins indiquées ci-dessus.

  • Annonces et contenus personnalisés, mesure des annonces et des contenus, connaissance de l'audience et développement de produits

    Les annonces et le contenu peuvent être personnalisés en fonction d'un profil. D'autres données peuvent être ajoutées pour mieux personnaliser les annonces et le contenu. Les performances des publicités et du contenu peuvent être mesurées. Il est possible d'obtenir des informations sur le public qui a vu les publicités et le contenu. Ces données peuvent être utilisées pour développer ou améliorer l'expérience de l'utilisateur, les systèmes et les logiciels.

En cliquant sur "J'accepte", vous autorisez l'utilisation de cookies, des identifiants d'appareils, des balises web ou d'autres technologies similaires. Vos paramètres peuvent être modifiés dans le navigateur de votre appareil.

Dans certains cas, des intérêts légitimes peuvent être invoqués plutôt qu'un consentement. Vous pouvez en savoir plus à ce sujet dans notre Politique de confidentialité et de cookies.